[[{"header":{"parameterUnit":"m.s-1","parameterCategory":1,"la1":30.2991,"la2":30.254,"lo1":-89.0895,"lo2":-89.0444,"dy":0.0017,"dx":0.0017,"nx":28,"ny":28,"refTime":"2024-05-27T21:00:00:Z","depth":0,"parameterNumber":2,"parameterNumberName":"U-component_of_WINDS"},"data":[0,0,0,0,0,0,0,0,0,0,0,0,0,0,0,0,0,0,0,0,0,0,0,0,0,0,0,0,0,0,0,0,0,0,0,0,0,0,0,0,0,0,0,0,0,0,0,0,0,0,0,0,0,0,0,0,0,0,0.2963,0.2964,0,0.3067,0.3069,0.307,0.3103,0.3103,0.3102,0.3102,0.3211,0.3214,0.3218,0,0,0,0,0,0,0,0,0,0,0,0,0,0.2794,0.2797,0.2963,0.2964,0.2965,0.3067,0.3069,0.307,0.3103,0.3103,0.3102,0.3101,0.321,0.3214,0.3218,0,0,0,0,0,0,0,0,0,0,0,0,0,0.288,0.2798,0.2963,0.2994,0.2998,0.3067,0.3069,0.3071,0.3103,0.3102,0.3102,0.3101,0.3209,0.3214,0.3219,0.3265,0,0,0.3234,0.3236,0,0,0,0,0,0,0,0,0.2875,0.2886,0.2988,0.2992,0.2997,0.3071,0.3049,0.3136,0.3103,0.3063,0.3102,0.3101,0.3165,0.3174,0.3195,0.327,0.3274,0.3234,0.3238,0.324,0.3241,0,0,0,0,0,0,0,0.2869,0.2882,0.3004,0.299,0.2995,0.3004,0.3015,0.3066,0.3117,0.3067,0.3069,0.3081,0.3168,0.319,0.3198,0.3276,0.3234,0.3239,0.3242,0.3244,0.3394,0.3394,0,0,0,0,0,0,0.2857,0.2876,0.3001,0.3007,0.2933,0.3007,0.302,0.3048,0.3117,0.3127,0.3082,0.3082,0.3182,0.3192,0.3202,0.326,0.324,0.3244,0.3247,0.3393,0.3394,0.3395,0,0,0,0,0,0,0.2854,0.2868,0.2997,0.2943,0.296,0.3011,0.3042,0.3051,0.3073,0.3128,0.3138,0.3095,0.3182,0.3195,0.3249,0.3265,0.3247,0.3251,0.3392,0.3393,0.3394,0.3377,0,0,0,0,0,0,0.2849,0.2867,0.2884,0.2943,0.2962,0.3041,0.3043,0.3053,0.3082,0.3084,0.3143,0.3153,0.3182,0.3241,0.3254,0.3271,0.3255,0.339,0.3392,0.3394,0.3377,0.3378,0.3379,0,0,0,0,0,0.2842,0.2876,0.2885,0.29,0.2985,0.3042,0.3053,0.3086,0.3083,0.3101,0.3136,0.3151,0.3261,0.3246,0.3261,0.328,0.3389,0.3392,0.3394,0.3376,0.3378,0.3379,0,0,0,0,0,0,0.2818,0.2884,0.2895,0.2948,0.2989,0.3047,0.3071,0.3086,0.313,0.313,0.3169,0.3182,0.3233,0.3262,0.3245,0.3328,0.3326,0.3331,0.3307,0.3309,0.3311,0.3303,0.3259,0,0,0,0,0,0.2819,0.2858,0.2914,0.2955,0.2975,0.3019,0.3045,0.3067,0.3111,0.3129,0.3168,0.3211,0.3256,0.3284,0.3328,0.3381,0.3395,0.3402,0.3403,0.3403,0.3408,0.3438,0.3442,0.3402,0.3402,0.3402,0,0,0.2821,0.2862,0.2884,0.2951,0.2986,0.3026,0.3034,0.3077,0.3108,0.3136,0.3189,0.3219,0.327,0.3323,0.3349,0.3349,0.3422,0.3406,0.3406,0.341,0.344,0.3444,0.3447,0.3403,0.3403,0.3403,0,0,0.2845,0.288,0.2918,0.2952,0.3004,0.3033,0.3042,0.3098,0.3119,0.3173,0.3195,0.3232,0.3308,0.3343,0.3371,0.3409,0.3424,0.3422,0.3428,0.3457,0.346,0.3463,0.3477,0.3481,0.3426,0.3426,0.3426,0,0.2841,0.2903,0.2936,0.2978,0.3007,0.3033,0.3073,0.3105,0.3168,0.3188,0.3187,0.3282,0.3318,0.338,0.3389,0.3411,0.3423,0.3415,0.3457,0.346,0.3464,0.3477,0.3482,0.3425,0.3425,0.3425,0.3425,0,0.2896,0.2938,0.2963,0.3022,0.3054,0.3095,0.3135,0.3163,0.3182,0.3211,0.3266,0.331,0.3363,0.338,0.3399,0.3445,0.3443,0.3449,0.3448,0.3466,0.348,0.3485,0.3424,0.3425,0.3425,0.3425,0,0,0.2908,0.2985,0.2994,0.3021,0.308,0.3114,0.3155,0.3206,0.323,0.3273,0.3309,0.3373,0.3379,0.341,0.3434,0.3459,0.3486,0.3462,0.3464,0.3465,0.354,0.3535,0.354,0.3496,0.3497,0.3498,0.3535,0,0.294,0.3014,0.3046,0.3106,0.3146,0.3172,0.3208,0.3248,0.3277,0.3316,0.3348,0.3392,0.3396,0.3415,0.3442,0.3477,0.3502,0.3475,0.3531,0.3533,0.3517,0.3547,0.3542,0.3575,0.3541,0.3542,0.3542,0,0.2987,0.3029,0.3093,0.3147,0.3165,0.3197,0.3247,0.3283,0.3329,0.3349,0.3384,0.3406,0.3451,0.3446,0.351,0.3491,0.3516,0.3536,0.3539,0.3545,0.3539,0.3554,0.3586,0.3591,0.3551,0.355,0.355,0,0.2989,0.3062,0.311,0.3133,0.3197,0.3219,0.3247,0.3293,0.3321,0.3365,0.3384,0.3433,0.3459,0.3497,0.3532,0.3525,0.3592,0.359,0.361,0.3609,0.3623,0.3621,0.3659,0.3638,0.3638,0.3638,0.3638,0,0.3022,0.306,0.3112,0.3142,0.3185,0.3221,0.3264,0.3294,0.3334,0.337,0.3396,0.343,0.3473,0.3513,0.3541,0.3589,0.3601,0.3618,0.3625,0.3616,0.3614,0.3633,0.3632,0.364,0.3639,0.3639,0.3639,0,0.3032,0.3068,0.3122,0.3178,0.3193,0.3223,0.3271,0.3301,0.3331,0.3376,0.3389,0.3436,0.3484,0.3522,0.3585,0.3604,0.3654,0.3662,0.3638,0.3642,0.366,0.3657,0.3711,0.372,0.3693,0.3693,0.3693,0,0.305,0.308,0.3139,0.3165,0.3192,0.3233,0.3262,0.3299,0.3329,0.3384,0.3407,0.3456,0.3498,0.3573,0.3613,0.3662,0.3671,0.3686,0.3678,0.3668,0.3671,0.3669,0.3672,0.3687,0.3687,0.3687,0.3687,0,0.3079,0.3095,0.3136,0.3183,0.3217,0.3256,0.3296,0.3316,0.336,0.3392,0.344,0.3472,0.3536,0.3585,0.3637,0.3667,0.3685,0.3689,0.3696,0.3687,0.3672,0.3681,0.3641,0.3688,0.3688,0.3688,0.3688,0.3688,0.3094,0.3121,0.3167,0.3212,0.3245,0.3282,0.3313,0.3346,0.3387,0.3441,0.346,0.351,0.3556,0.3628,0.3658,0.3698,0.37,0.371,0.3713,0.3715,0.3714,0.3666,0.3708,0.3708,0.3708,0.3708,0.3708,0,0.3124,0.3154,0.3195,0.3249,0.3285,0.3297,0.3342,0.3371,0.3414,0.3455,0.3495,0.3551,0.3599,0.3643,0.3692,0.3716,0.3726,0.3728,0.3727,0.3733,0.371,0.3698,0.372,0.372,0.372,0.372,0.372,0.372,0.3143,0.3191,0.3213,0.3278,0.3308,0.3357,0.3381,0.3415,0.3448,0.3509,0.3548,0.3576,0.3619,0.3672,0.3716,0.3728,0.3746,0.3746,0.376,0.3737,0.3735,0.3734,0.3723,0.3749,0.3749,0.378,0.3781,0.3781]},{"header":{"parameterUnit":"m.s-1","parameterCategory":1,"la1":30.2991,"la2":30.254,"lo1":-89.0895,"lo2":-89.0444,"dy":0.0017,"dx":0.0017,"nx":28,"ny":28,"refTime":"2024-05-27T21:00:00:Z","depth":0,"parameterNumber":3,"parameterNumberName":"V-component_of_WINDS"},"data":[0,0,0,0,0,0,0,0,0,0,0,0,0,0,0,0,0,0,0,0,0,0,0,0,0,0,0,0,0,0,0,0,0,0,0,0,0,0,0,0,0,0,0,0,0,0,0,0,0,0,0,0,0,0,0,0,0,0,2.4031,2.4031,0,2.3992,2.3992,2.3991,2.3907,2.3905,2.3904,2.3902,2.3864,2.3865,2.3865,0,0,0,0,0,0,0,0,0,0,0,0,0,2.4036,2.4036,2.4032,2.4031,2.4031,2.3992,2.3992,2.3991,2.3907,2.3905,2.3903,2.3901,2.3864,2.3865,2.3865,0,0,0,0,0,0,0,0,0,0,0,0,0,2.4019,2.4036,2.4032,2.3984,2.3979,2.3992,2.3992,2.3991,2.3908,2.3905,2.3903,2.39,2.3864,2.3865,2.3865,2.3922,0,0,2.3868,2.3868,0,0,0,0,0,0,0,0,2.402,2.4019,2.3991,2.3987,2.3982,2.3952,2.3979,2.3968,2.3908,2.3935,2.3902,2.3899,2.3896,2.3894,2.3892,2.3921,2.3919,2.3868,2.3869,2.3869,2.3869,0,0,0,0,0,0,0,2.4021,2.402,2.4016,2.3991,2.3985,2.3965,2.396,2.3977,2.393,2.3933,2.3926,2.3923,2.3892,2.3891,2.389,2.3918,2.3868,2.3869,2.3869,2.387,2.3992,2.3994,0,0,0,0,0,0,2.4029,2.4022,2.4017,2.4015,2.3995,2.3967,2.3961,2.3964,2.393,2.3922,2.3925,2.3919,2.3891,2.389,2.3889,2.3953,2.3869,2.387,2.387,2.3989,2.3992,2.3995,0,0,0,0,0,0,2.403,2.403,2.4019,2.4017,2.4014,2.397,2.3974,2.3965,2.3963,2.3924,2.3916,2.3932,2.3889,2.3888,2.3914,2.3951,2.387,2.3871,2.3986,2.399,2.3994,2.4083,0,0,0,0,0,0,2.403,2.403,2.4051,2.4018,2.4014,2.4045,2.3976,2.3966,2.3965,2.3957,2.3929,2.3921,2.3887,2.3914,2.3915,2.3951,2.3872,2.3982,2.3988,2.3992,2.4077,2.409,2.4101,0,0,0,0,0,2.4031,2.4078,2.4053,2.4052,2.4039,2.4047,2.4045,2.4004,2.3968,2.3989,2.3964,2.3922,2.3946,2.3917,2.3918,2.3954,2.398,2.3986,2.3992,2.4071,2.4087,2.41,0,0,0,0,0,0,2.4118,2.4073,2.4044,2.4082,2.4069,2.4033,2.4058,2.4022,2.4019,2.4012,2.3961,2.3955,2.3989,2.3974,2.3942,2.4008,2.3957,2.3963,2.4016,2.4031,2.4043,2.4046,2.3873,0,0,0,0,0,2.4142,2.4151,2.4111,2.4149,2.4144,2.4102,2.4104,2.4073,2.4058,2.4052,2.4029,2.4016,2.4021,2.4025,2.4027,2.4074,2.4067,2.4099,2.4111,2.4121,2.4128,2.4152,2.4166,2.4015,2.4015,2.4015,0,0,2.4191,2.4167,2.4177,2.4166,2.4152,2.4164,2.4098,2.4113,2.4122,2.4055,2.4079,2.4061,2.4043,2.4081,2.4096,2.4069,2.4168,2.4129,2.4137,2.4138,2.416,2.4174,2.4187,2.4019,2.4019,2.4018,0,0,2.4286,2.4269,2.4299,2.4286,2.4265,2.4237,2.4245,2.4214,2.4199,2.4222,2.4172,2.4182,2.419,2.418,2.4176,2.4267,2.423,2.4269,2.4333,2.4357,2.4369,2.4379,2.4412,2.4425,2.4276,2.4276,2.4276,0,2.435,2.4365,2.4319,2.4337,2.4334,2.4273,2.4303,2.4293,2.4275,2.4274,2.4244,2.4254,2.4238,2.4272,2.4294,2.4293,2.43,2.4273,2.4371,2.4381,2.439,2.4421,2.4433,2.4281,2.4281,2.428,2.428,0,2.4445,2.4456,2.4483,2.4466,2.4466,2.449,2.4448,2.4453,2.4422,2.4398,2.4422,2.44,2.4397,2.4402,2.4373,2.4433,2.4417,2.438,2.4327,2.441,2.4438,2.445,2.4288,2.4287,2.4285,2.4284,0,0,2.4596,2.4552,2.4563,2.4554,2.4527,2.4535,2.4556,2.4552,2.4558,2.4548,2.4565,2.4574,2.4539,2.4535,2.4503,2.4524,2.4598,2.4484,2.4483,2.4507,2.4664,2.4693,2.4707,2.4573,2.4575,2.4576,2.4666,0,2.4685,2.4719,2.4678,2.4721,2.4731,2.4672,2.4691,2.4677,2.4654,2.466,2.4635,2.4642,2.4596,2.4593,2.4611,2.4586,2.4629,2.4578,2.4589,2.459,2.4596,2.4722,2.4752,2.4838,2.4676,2.4678,2.4679,0,2.4795,2.4789,2.4833,2.4803,2.4805,2.4823,2.4816,2.4822,2.4804,2.4786,2.4781,2.4743,2.4763,2.4711,2.4738,2.4704,2.4706,2.4694,2.4697,2.4697,2.4641,2.4727,2.4864,2.4877,2.4696,2.4695,2.4694,0,2.4902,2.4904,2.493,2.4925,2.489,2.4904,2.4891,2.487,2.4871,2.4865,2.4864,2.4861,2.486,2.4858,2.482,2.4786,2.4852,2.4797,2.4839,2.484,2.4856,2.4856,2.4997,2.4856,2.4856,2.4855,2.4855,0,2.5007,2.5036,2.4978,2.4994,2.5026,2.4978,2.501,2.4991,2.4973,2.4985,2.4935,2.4947,2.4896,2.4903,2.4874,2.4901,2.49,2.4887,2.4879,2.4892,2.4894,2.4894,2.4887,2.4859,2.4858,2.4857,2.4857,0,2.5131,2.5093,2.5119,2.5083,2.5075,2.51,2.507,2.5084,2.5058,2.5074,2.5075,2.5034,2.504,2.5002,2.5001,2.4981,2.5023,2.5004,2.5029,2.5023,2.5067,2.5064,2.5213,2.5231,2.5078,2.508,2.5081,0,2.5202,2.5223,2.519,2.5194,2.5182,2.519,2.5189,2.5143,2.5145,2.5127,2.5143,2.5145,2.5144,2.5156,2.5127,2.5126,2.5108,2.516,2.5107,2.512,2.511,2.5109,2.5111,2.5172,2.5173,2.5175,2.5176,0,2.5331,2.5311,2.5312,2.5307,2.5308,2.5301,2.5292,2.5298,2.5248,2.5253,2.5258,2.5257,2.5256,2.5258,2.5251,2.5238,2.52,2.5193,2.5202,2.5217,2.5231,2.5225,2.506,2.519,2.5189,2.5188,2.5187,2.5186,2.5431,2.5447,2.5426,2.5429,2.5417,2.5409,2.5421,2.5395,2.5399,2.5393,2.5366,2.5376,2.5358,2.5345,2.5335,2.5343,2.5318,2.5332,2.5336,2.534,2.5348,2.5228,2.5341,2.5341,2.5341,2.534,2.534,0,2.5558,2.5542,2.5545,2.5533,2.5535,2.5497,2.5485,2.549,2.5499,2.5485,2.5485,2.5491,2.5493,2.5464,2.5462,2.5474,2.5457,2.5476,2.5475,2.5473,2.537,2.5362,2.549,2.549,2.549,2.549,2.549,2.549,2.5625,2.565,2.5628,2.5647,2.563,2.5639,2.5635,2.5628,2.5617,2.5626,2.5627,2.5607,2.5587,2.5584,2.5584,2.5575,2.5578,2.5603,2.5589,2.5494,2.548,2.5466,2.5458,2.5604,2.5604,2.569,2.5691,2.5692]}]]